GSAT0211 (PRN E02)

Last updated on Feb. 20, 2020, 4:41 a.m. UTC

1 41549U 16030A   20049.82801499  .00000005  00000-0  00000+0 0  9993
2 41549  56.3873 285.2326 0003669 344.3367  15.7172  1.70474500 23263
UTC
Height (km)
Latitude
Longitude
Inclination
Orbital Period
UTC large
Height (km)
Speed (km/s)
/
Latitude / Longitude
Inclination (degrees)
Orbital Period (minutes)
Azimuth
Elevation
Range (km)
Doppler Factor
iOS Compass Heading
iOS Angle

Next 30 passes for location: Hong Kong

Rise time Rise Azimuth (degrees) Set time Set Azimuth (degrees) Duration Max altitude (degrees)

No matching passes for this satellites